Year,Month,Day,Hour,Minute,Value (Times are PST for temperature in C)
2008,08,17,00,00,26.40
2008,08,17,00,01,26.30
2008,08,17,00,02,26.30
2008,08,17,00,03,26.30
2008,08,17,00,04,26.30
2008,08,17,00,05,26.20
2008,08,17,00,06,26.20
2008,08,17,00,07,26.10
2008,08,17,00,08,26.10
2008,08,17,00,09,26.00
2008,08,17,00,10,26.00
2008,08,17,00,11,25.90
2008,08,17,00,12,25.90
2008,08,17,00,13,25.90
2008,08,17,00,14,25.90
2008,08,17,00,15,25.80
2008,08,17,00,16,25.80
2008,08,17,00,17,25.70
2008,08,17,00,18,25.70
2008,08,17,00,19,25.70
2008,08,17,00,20,25.70
2008,08,17,00,21,25.60
2008,08,17,00,22,25.60
2008,08,17,00,23,25.60
2008,08,17,00,24,25.60
2008,08,17,00,25,25.60
2008,08,17,00,26,25.60
2008,08,17,00,27,25.50
2008,08,17,00,28,25.50
2008,08,17,00,29,25.50
2008,08,17,00,30,25.40
2008,08,17,00,31,25.40
2008,08,17,00,32,25.30
2008,08,17,00,33,25.30
2008,08,17,00,34,25.30
2008,08,17,00,35,25.20
2008,08,17,00,36,25.20
2008,08,17,00,37,25.10
2008,08,17,00,38,25.10
2008,08,17,00,39,25.10
2008,08,17,00,40,25.10
2008,08,17,00,41,25.10
2008,08,17,00,42,25.00
2008,08,17,00,43,25.00
2008,08,17,00,44,25.00
2008,08,17,00,45,25.00
2008,08,17,00,46,24.90
2008,08,17,00,47,24.90
2008,08,17,00,48,24.90
2008,08,17,00,49,24.90
2008,08,17,00,50,24.90
2008,08,17,00,51,24.90
2008,08,17,00,52,24.80
2008,08,17,00,53,24.80
2008,08,17,00,54,24.70
2008,08,17,00,55,24.70
2008,08,17,00,56,24.60
2008,08,17,00,57,24.60
2008,08,17,00,58,24.60
2008,08,17,00,59,24.50
2008,08,17,01,00,24.50
2008,08,17,01,01,24.50
2008,08,17,01,02,24.40
2008,08,17,01,03,24.40
2008,08,17,01,04,24.40
2008,08,17,01,05,24.40
2008,08,17,01,06,24.40
2008,08,17,01,07,24.40
2008,08,17,01,08,24.40
2008,08,17,01,09,24.40
2008,08,17,01,10,24.40
2008,08,17,01,11,24.40
2008,08,17,01,12,24.40
2008,08,17,01,13,24.40
2008,08,17,01,14,24.40
2008,08,17,01,15,24.40
2008,08,17,01,16,24.40
2008,08,17,01,17,24.40
2008,08,17,01,18,24.40
2008,08,17,01,19,24.40
2008,08,17,01,20,24.40
2008,08,17,01,21,24.30
2008,08,17,01,22,24.30
2008,08,17,01,23,24.30
2008,08,17,01,24,24.30
2008,08,17,01,25,24.30
2008,08,17,01,26,24.30
2008,08,17,01,27,24.30
2008,08,17,01,28,24.30
2008,08,17,01,29,24.40
2008,08,17,01,30,24.40
2008,08,17,01,31,24.40
2008,08,17,01,32,24.40
2008,08,17,01,33,24.40
2008,08,17,01,34,24.40
2008,08,17,01,35,24.40
2008,08,17,01,36,24.40
2008,08,17,01,37,24.40
2008,08,17,01,38,24.40
2008,08,17,01,39,24.40
2008,08,17,01,40,24.40
2008,08,17,01,41,24.40
2008,08,17,01,42,24.40
2008,08,17,01,43,24.40
2008,08,17,01,44,24.40
2008,08,17,01,45,24.30
2008,08,17,01,46,24.30
2008,08,17,01,47,24.30
2008,08,17,01,48,24.20
2008,08,17,01,49,24.20
2008,08,17,01,50,24.10
2008,08,17,01,51,24.10
2008,08,17,01,52,24.10
2008,08,17,01,53,24.00
2008,08,17,01,54,24.00
2008,08,17,01,55,24.00
2008,08,17,01,56,24.00
2008,08,17,01,57,24.00
2008,08,17,01,58,24.00
2008,08,17,01,59,24.00
2008,08,17,02,00,24.00
2008,08,17,02,01,23.90
2008,08,17,02,02,23.90
2008,08,17,02,03,23.80
2008,08,17,02,04,23.70
2008,08,17,02,05,23.70
2008,08,17,02,06,23.60
2008,08,17,02,07,23.60
2008,08,17,02,08,23.50
2008,08,17,02,09,23.50
2008,08,17,02,10,23.40
2008,08,17,02,11,23.40
2008,08,17,02,12,23.40
2008,08,17,02,13,23.40
2008,08,17,02,14,23.40
2008,08,17,02,15,23.40
2008,08,17,02,16,23.40
2008,08,17,02,17,23.40
2008,08,17,02,18,23.40
2008,08,17,02,19,23.30
2008,08,17,02,20,23.30
2008,08,17,02,21,23.30
2008,08,17,02,22,23.20
2008,08,17,02,23,23.20
2008,08,17,02,24,23.20
2008,08,17,02,25,23.20
2008,08,17,02,26,23.20
2008,08,17,02,27,23.20
2008,08,17,02,28,23.30
2008,08,17,02,29,23.30
2008,08,17,02,30,23.30
2008,08,17,02,31,23.30
2008,08,17,02,32,23.30
2008,08,17,02,33,23.30
2008,08,17,02,34,23.30
2008,08,17,02,35,23.30
2008,08,17,02,36,23.30
2008,08,17,02,37,23.20
2008,08,17,02,38,23.20
2008,08,17,02,39,23.20
2008,08,17,02,40,23.10
2008,08,17,02,41,23.10
2008,08,17,02,42,23.10
2008,08,17,02,43,23.00
2008,08,17,02,44,23.00
2008,08,17,02,45,22.90
2008,08,17,02,46,22.90
2008,08,17,02,47,22.90
2008,08,17,02,48,22.90
2008,08,17,02,49,22.90
2008,08,17,02,50,22.90
2008,08,17,02,51,22.80
2008,08,17,02,52,22.80
2008,08,17,02,53,22.80
2008,08,17,02,54,22.80
2008,08,17,02,55,22.80
2008,08,17,02,56,22.80
2008,08,17,02,57,22.80
2008,08,17,02,58,22.80
2008,08,17,02,59,22.70
2008,08,17,03,00,22.70
2008,08,17,03,01,22.70
2008,08,17,03,02,22.70
2008,08,17,03,03,22.70
2008,08,17,03,04,22.70
2008,08,17,03,05,22.70
2008,08,17,03,06,22.70
2008,08,17,03,07,22.70
2008,08,17,03,08,22.70
2008,08,17,03,09,22.70
2008,08,17,03,10,22.60
2008,08,17,03,11,22.60
2008,08,17,03,12,22.60
2008,08,17,03,13,22.50
2008,08,17,03,14,22.50
2008,08,17,03,15,22.50
2008,08,17,03,16,22.40
2008,08,17,03,17,22.40
2008,08,17,03,18,22.40
2008,08,17,03,19,22.30
2008,08,17,03,20,22.30
2008,08,17,03,21,22.30
2008,08,17,03,22,22.30
2008,08,17,03,23,22.30
2008,08,17,03,24,22.30
2008,08,17,03,25,22.30
2008,08,17,03,26,22.30
2008,08,17,03,27,22.30
2008,08,17,03,28,22.30
2008,08,17,03,29,22.30
2008,08,17,03,30,22.30
2008,08,17,03,31,22.30
2008,08,17,03,32,22.30
2008,08,17,03,33,22.30
2008,08,17,03,34,22.30
2008,08,17,03,35,22.30
2008,08,17,03,36,22.30
2008,08,17,03,37,22.30
2008,08,17,03,38,22.30
2008,08,17,03,39,22.30
2008,08,17,03,40,22.20
2008,08,17,03,41,22.20
2008,08,17,03,42,22.20
2008,08,17,03,43,22.20
2008,08,17,03,44,22.30
2008,08,17,03,45,22.30
2008,08,17,03,46,22.30
2008,08,17,03,47,22.30
2008,08,17,03,48,22.30
2008,08,17,03,49,22.40
2008,08,17,03,50,22.40
2008,08,17,03,51,22.50
2008,08,17,03,52,22.50
2008,08,17,03,53,22.60
2008,08,17,03,54,22.60
2008,08,17,03,55,22.60
2008,08,17,03,56,22.60
2008,08,17,03,57,22.60
2008,08,17,03,58,22.60
2008,08,17,03,59,22.60
2008,08,17,04,00,22.50
2008,08,17,04,01,22.60
2008,08,17,04,02,22.60
2008,08,17,04,03,22.50
2008,08,17,04,04,22.50
2008,08,17,04,05,22.50
2008,08,17,04,06,22.50
2008,08,17,04,07,22.40
2008,08,17,04,08,22.40
2008,08,17,04,09,22.40
2008,08,17,04,10,22.30
2008,08,17,04,11,22.30
2008,08,17,04,12,22.20
2008,08,17,04,13,22.20
2008,08,17,04,14,22.10
2008,08,17,04,15,22.10
2008,08,17,04,16,22.10
2008,08,17,04,17,22.00
2008,08,17,04,18,22.00
2008,08,17,04,19,22.00
2008,08,17,04,20,21.90
2008,08,17,04,21,21.90
2008,08,17,04,22,21.90
2008,08,17,04,23,21.80
2008,08,17,04,24,21.80
2008,08,17,04,25,21.70
2008,08,17,04,26,21.70
2008,08,17,04,27,21.60
2008,08,17,04,28,21.60
2008,08,17,04,29,21.50
2008,08,17,04,30,21.40
2008,08,17,04,31,21.40
2008,08,17,04,32,21.30
2008,08,17,04,33,21.20
2008,08,17,04,34,21.20
2008,08,17,04,35,21.10
2008,08,17,04,36,21.10
2008,08,17,04,37,21.10
2008,08,17,04,38,21.00
2008,08,17,04,39,21.00
2008,08,17,04,40,20.90
2008,08,17,04,41,20.90
2008,08,17,04,42,20.80
2008,08,17,04,43,20.80
2008,08,17,04,44,20.80
2008,08,17,04,45,20.70
2008,08,17,04,46,20.70
2008,08,17,04,47,20.70
2008,08,17,04,48,20.60
2008,08,17,04,49,20.60
2008,08,17,04,50,20.60
2008,08,17,04,51,20.60
2008,08,17,04,52,20.60
2008,08,17,04,53,20.50
2008,08,17,04,54,20.50
2008,08,17,04,55,20.50
2008,08,17,04,56,20.40
2008,08,17,04,57,20.40
2008,08,17,04,58,20.40
2008,08,17,04,59,20.30
2008,08,17,05,00,20.30
2008,08,17,05,01,20.30
2008,08,17,05,02,20.30
2008,08,17,05,03,20.30
2008,08,17,05,04,20.30
2008,08,17,05,05,20.30
2008,08,17,05,06,20.30
2008,08,17,05,07,20.30
2008,08,17,05,08,20.30
2008,08,17,05,09,20.30
2008,08,17,05,10,20.30
2008,08,17,05,11,20.30
2008,08,17,05,12,20.30
2008,08,17,05,13,20.30
2008,08,17,05,14,20.30
2008,08,17,05,15,20.30
2008,08,17,05,16,20.30
2008,08,17,05,17,20.30
2008,08,17,05,18,20.30
2008,08,17,05,19,20.30
2008,08,17,05,20,20.30
2008,08,17,05,21,20.30
2008,08,17,05,22,20.30
2008,08,17,05,23,20.40
2008,08,17,05,24,20.40
2008,08,17,05,25,20.40
2008,08,17,05,26,20.40
2008,08,17,05,27,20.40
2008,08,17,05,28,20.40
2008,08,17,05,29,20.40
2008,08,17,05,30,20.40
2008,08,17,05,31,20.40
2008,08,17,05,32,20.40
2008,08,17,05,33,20.40
2008,08,17,05,34,20.40
2008,08,17,05,35,20.40
2008,08,17,05,36,20.40
2008,08,17,05,37,20.40
2008,08,17,05,38,20.40
2008,08,17,05,39,20.40
2008,08,17,05,40,20.40
2008,08,17,05,41,20.40
2008,08,17,05,42,20.40
2008,08,17,05,43,20.40
2008,08,17,05,44,20.40
2008,08,17,05,45,20.40
2008,08,17,05,46,20.40
2008,08,17,05,47,20.40
2008,08,17,05,48,20.40
2008,08,17,05,49,20.30
2008,08,17,05,50,20.30
2008,08,17,05,51,20.30
2008,08,17,05,52,20.20
2008,08,17,05,53,20.20
2008,08,17,05,54,20.20
2008,08,17,05,55,20.10
2008,08,17,05,56,20.10
2008,08,17,05,57,20.10
2008,08,17,05,58,20.10
2008,08,17,05,59,20.00
2008,08,17,06,00,20.00
2008,08,17,06,01,20.00
2008,08,17,06,02,19.90
2008,08,17,06,03,19.90
2008,08,17,06,04,19.90
2008,08,17,06,05,19.90
2008,08,17,06,06,19.90
2008,08,17,06,07,19.90
2008,08,17,06,08,19.90
2008,08,17,06,09,19.90
2008,08,17,06,10,19.90
2008,08,17,06,11,19.90
2008,08,17,06,12,20.00
2008,08,17,06,13,20.00
2008,08,17,06,14,20.00
2008,08,17,06,15,20.00
2008,08,17,06,16,19.90
2008,08,17,06,17,19.90
2008,08,17,06,18,19.90
2008,08,17,06,19,19.90
2008,08,17,06,20,19.90
2008,08,17,06,21,19.90
2008,08,17,06,22,19.80
2008,08,17,06,23,19.80
2008,08,17,06,24,19.80
2008,08,17,06,25,19.80
2008,08,17,06,26,19.80
2008,08,17,06,27,19.80
2008,08,17,06,28,19.80
2008,08,17,06,29,19.80
2008,08,17,06,30,19.70
2008,08,17,06,31,19.70
2008,08,17,06,32,19.70
2008,08,17,06,33,19.70
2008,08,17,06,34,19.70
2008,08,17,06,35,19.60
2008,08,17,06,36,19.60
2008,08,17,06,37,19.50
2008,08,17,06,38,19.50
2008,08,17,06,39,19.50
2008,08,17,06,40,19.40
2008,08,17,06,41,19.40
2008,08,17,06,42,19.40
2008,08,17,06,43,19.40
2008,08,17,06,44,19.40
2008,08,17,06,45,19.30
2008,08,17,06,46,19.30
2008,08,17,06,47,19.30
2008,08,17,06,48,19.30
2008,08,17,06,49,19.30
2008,08,17,06,50,19.30
2008,08,17,06,51,19.30
2008,08,17,06,52,19.30
2008,08,17,06,53,19.30
2008,08,17,06,54,19.30
2008,08,17,06,55,19.30
2008,08,17,06,56,19.30
2008,08,17,06,57,19.30
2008,08,17,06,58,19.30
2008,08,17,06,59,19.30
2008,08,17,07,00,19.40
2008,08,17,07,01,19.40
2008,08,17,07,02,19.40
2008,08,17,07,03,19.40
2008,08,17,07,04,19.40
2008,08,17,07,05,19.40
2008,08,17,07,06,19.40
2008,08,17,07,07,19.40
2008,08,17,07,08,19.50
2008,08,17,07,09,19.50
2008,08,17,07,10,19.50
2008,08,17,07,11,19.60
2008,08,17,07,12,19.60
2008,08,17,07,13,19.60
2008,08,17,07,14,19.60
2008,08,17,07,15,19.60
2008,08,17,07,16,19.60
2008,08,17,07,17,19.60
2008,08,17,07,18,19.60
2008,08,17,07,19,19.70
2008,08,17,07,20,19.70
2008,08,17,07,21,19.70
2008,08,17,07,22,19.70
2008,08,17,07,23,19.70
2008,08,17,07,24,19.70
2008,08,17,07,25,19.80
2008,08,17,07,26,19.80
2008,08,17,07,27,19.80
2008,08,17,07,28,19.80
2008,08,17,07,29,19.80
2008,08,17,07,30,19.80
2008,08,17,07,31,19.80
2008,08,17,07,32,19.80
2008,08,17,07,33,19.80
2008,08,17,07,34,19.80
2008,08,17,07,35,19.80
2008,08,17,07,36,19.70
2008,08,17,07,37,19.70
2008,08,17,07,38,19.70
2008,08,17,07,39,19.60
2008,08,17,07,40,19.60
2008,08,17,07,41,19.60
2008,08,17,07,42,19.50
2008,08,17,07,43,19.40
2008,08,17,07,44,19.40
2008,08,17,07,45,19.40
2008,08,17,07,46,19.30
2008,08,17,07,47,19.30
2008,08,17,07,48,19.30
2008,08,17,07,49,19.30
2008,08,17,07,50,19.20
2008,08,17,07,51,19.20
2008,08,17,07,52,19.20
2008,08,17,07,53,19.10
2008,08,17,07,54,19.10
2008,08,17,07,55,19.10
2008,08,17,07,56,19.10
2008,08,17,07,57,19.10
2008,08,17,07,58,19.00
2008,08,17,07,59,19.00
2008,08,17,08,00,19.00
2008,08,17,08,01,19.00
2008,08,17,08,02,18.90
2008,08,17,08,03,18.90
2008,08,17,08,04,18.90
2008,08,17,08,05,18.90
2008,08,17,08,06,18.90
2008,08,17,08,07,18.90
2008,08,17,08,08,18.90
2008,08,17,08,09,18.90
2008,08,17,08,10,18.90
2008,08,17,08,11,18.90
2008,08,17,08,12,18.90
2008,08,17,08,13,18.90
2008,08,17,08,14,18.90
2008,08,17,08,15,18.90
2008,08,17,08,16,18.90
2008,08,17,08,17,19.00
2008,08,17,08,18,19.00
2008,08,17,08,19,19.00
2008,08,17,08,20,19.00
2008,08,17,08,21,19.10
2008,08,17,08,22,19.10
2008,08,17,08,23,19.10
2008,08,17,08,24,19.10
2008,08,17,08,25,19.20
2008,08,17,08,26,19.20
2008,08,17,08,27,19.20
2008,08,17,08,28,19.10
2008,08,17,08,29,19.10
2008,08,17,08,30,19.00
2008,08,17,08,31,19.00
2008,08,17,08,32,18.90
2008,08,17,08,33,18.90
2008,08,17,08,34,18.90
2008,08,17,08,35,18.90
2008,08,17,08,36,18.90
2008,08,17,08,37,18.90
2008,08,17,08,38,18.90
2008,08,17,08,39,18.90
2008,08,17,08,40,18.90
2008,08,17,08,41,18.90
2008,08,17,08,42,18.90
2008,08,17,08,43,18.90
2008,08,17,08,44,18.90
2008,08,17,08,45,18.90
2008,08,17,08,46,18.90
2008,08,17,08,47,18.90
2008,08,17,08,48,18.90
2008,08,17,08,49,19.00
2008,08,17,08,50,19.00
2008,08,17,08,51,19.00
2008,08,17,08,52,19.00
2008,08,17,08,53,19.00
2008,08,17,08,54,19.00
2008,08,17,08,55,19.00
2008,08,17,08,56,19.00
2008,08,17,08,57,19.10
2008,08,17,08,58,19.10
2008,08,17,08,59,19.10
2008,08,17,09,00,19.20
2008,08,17,09,01,19.20
2008,08,17,09,02,19.30
2008,08,17,09,03,19.30
2008,08,17,09,04,19.40
2008,08,17,09,05,19.50
2008,08,17,09,06,19.50
2008,08,17,09,07,19.60
2008,08,17,09,08,19.70
2008,08,17,09,09,19.70
2008,08,17,09,10,19.70
2008,08,17,09,11,19.80
2008,08,17,09,12,19.80
2008,08,17,09,13,19.90
2008,08,17,09,14,19.90
2008,08,17,09,15,20.00
2008,08,17,09,16,20.10
2008,08,17,09,17,20.20
2008,08,17,09,18,20.30
2008,08,17,09,19,20.30
2008,08,17,09,20,20.40
2008,08,17,09,21,20.50
2008,08,17,09,22,20.60
2008,08,17,09,23,20.70
2008,08,17,09,24,20.90
2008,08,17,09,25,21.00
2008,08,17,09,26,21.10
2008,08,17,09,27,21.30
2008,08,17,09,28,21.40
2008,08,17,09,29,21.50
2008,08,17,09,30,21.60
2008,08,17,09,31,21.70
2008,08,17,09,32,21.80
2008,08,17,09,33,21.90
2008,08,17,09,34,22.00
2008,08,17,09,35,22.20
2008,08,17,09,36,22.20
2008,08,17,09,37,22.30
2008,08,17,09,38,22.40
2008,08,17,09,39,22.60
2008,08,17,09,40,22.80
2008,08,17,09,41,22.90
2008,08,17,09,42,23.00
2008,08,17,09,43,23.10
2008,08,17,09,44,23.00
2008,08,17,09,45,23.00
2008,08,17,09,46,22.90
2008,08,17,09,47,22.90
2008,08,17,09,48,22.90
2008,08,17,09,49,22.80
2008,08,17,09,50,22.90
2008,08,17,09,51,22.90
2008,08,17,09,52,22.90
2008,08,17,09,53,22.80
2008,08,17,09,54,22.70
2008,08,17,09,55,22.60
2008,08,17,09,56,22.60
2008,08,17,09,57,22.60
2008,08,17,09,58,22.50
2008,08,17,09,59,22.50
2008,08,17,10,00,22.60
2008,08,17,10,01,22.60
2008,08,17,10,02,22.70
2008,08,17,10,03,22.80
2008,08,17,10,04,22.90
2008,08,17,10,05,23.00
2008,08,17,10,06,23.20
2008,08,17,10,07,23.30
2008,08,17,10,08,23.40
2008,08,17,10,09,23.40
2008,08,17,10,10,23.50
2008,08,17,10,11,23.60
2008,08,17,10,12,23.70
2008,08,17,10,13,23.70
2008,08,17,10,14,23.80
2008,08,17,10,15,24.00
2008,08,17,10,16,24.10
2008,08,17,10,17,24.30
2008,08,17,10,18,24.40
2008,08,17,10,19,24.60
2008,08,17,10,20,24.70
2008,08,17,10,21,24.70
2008,08,17,10,22,24.70
2008,08,17,10,23,24.80
2008,08,17,10,24,24.80
2008,08,17,10,25,24.80
2008,08,17,10,26,24.80
2008,08,17,10,27,24.90
2008,08,17,10,28,25.00
2008,08,17,10,29,25.10
2008,08,17,10,30,25.10
2008,08,17,10,31,25.20
2008,08,17,10,32,25.20
2008,08,17,10,33,25.40
2008,08,17,10,34,25.50
2008,08,17,10,35,25.60
2008,08,17,10,36,25.60
2008,08,17,10,37,25.60
2008,08,17,10,38,25.60
2008,08,17,10,39,25.60
2008,08,17,10,40,25.70
2008,08,17,10,41,25.70
2008,08,17,10,42,25.70
2008,08,17,10,43,25.70
2008,08,17,10,44,25.70
2008,08,17,10,45,25.70
2008,08,17,10,46,25.80
2008,08,17,10,47,25.90
2008,08,17,10,48,25.90
2008,08,17,10,49,26.00
2008,08,17,10,50,26.10
2008,08,17,10,51,26.30
2008,08,17,10,52,26.30
2008,08,17,10,53,26.30
2008,08,17,10,54,26.40
2008,08,17,10,55,26.40
2008,08,17,10,56,26.40
2008,08,17,10,57,26.40
2008,08,17,10,58,26.40
2008,08,17,10,59,26.40
2008,08,17,11,00,26.40
2008,08,17,11,01,26.50
2008,08,17,11,02,26.60
2008,08,17,11,03,26.60
2008,08,17,11,04,26.70
2008,08,17,11,05,26.60
2008,08,17,11,06,26.60
2008,08,17,11,07,26.60
2008,08,17,11,08,26.60
2008,08,17,11,09,26.50
2008,08,17,11,10,26.30
2008,08,17,11,11,26.10
2008,08,17,11,12,25.90
2008,08,17,11,13,25.90
2008,08,17,11,14,25.80
2008,08,17,11,15,25.80
2008,08,17,11,16,25.70
2008,08,17,11,17,25.80
2008,08,17,11,18,25.90
2008,08,17,11,19,26.00
2008,08,17,11,20,26.00
2008,08,17,11,21,26.00
2008,08,17,11,22,25.90
2008,08,17,11,23,25.80
2008,08,17,11,24,25.70
2008,08,17,11,25,25.60
2008,08,17,11,26,25.50
2008,08,17,11,27,25.50
2008,08,17,11,28,25.60
2008,08,17,11,29,25.70
2008,08,17,11,30,25.70
2008,08,17,11,31,25.60
2008,08,17,11,32,25.60
2008,08,17,11,33,25.60
2008,08,17,11,34,25.50
2008,08,17,11,35,25.40
2008,08,17,11,36,25.40
2008,08,17,11,37,25.40
2008,08,17,11,38,25.40
2008,08,17,11,39,25.40
2008,08,17,11,40,25.30
2008,08,17,11,41,25.20
2008,08,17,11,42,25.10
2008,08,17,11,43,25.10
2008,08,17,11,44,25.00
2008,08,17,11,45,25.00
2008,08,17,11,46,24.90
2008,08,17,11,47,25.00
2008,08,17,11,48,25.00
2008,08,17,11,49,24.90
2008,08,17,11,50,24.90
2008,08,17,11,51,24.80
2008,08,17,11,52,24.90
2008,08,17,11,53,24.90
2008,08,17,11,54,25.00
2008,08,17,11,55,25.10
2008,08,17,11,56,25.20
2008,08,17,11,57,25.30
2008,08,17,11,58,25.30
2008,08,17,11,59,25.30
2008,08,17,12,00,25.30
2008,08,17,12,01,25.30
2008,08,17,12,02,25.30
2008,08,17,12,03,25.30
2008,08,17,12,04,25.40
2008,08,17,12,05,25.50
2008,08,17,12,06,25.50
2008,08,17,12,07,25.60
2008,08,17,12,08,25.60
2008,08,17,12,09,25.80
2008,08,17,12,10,25.90
2008,08,17,12,11,25.90
2008,08,17,12,12,25.90
2008,08,17,12,13,25.90
2008,08,17,12,14,25.90
2008,08,17,12,15,25.90
2008,08,17,12,16,25.80
2008,08,17,12,17,25.80
2008,08,17,12,18,25.60
2008,08,17,12,19,25.50
2008,08,17,12,20,25.40
2008,08,17,12,21,25.40
2008,08,17,12,22,25.40
2008,08,17,12,23,25.50
2008,08,17,12,24,25.50
2008,08,17,12,25,25.60
2008,08,17,12,26,25.60
2008,08,17,12,27,25.60
2008,08,17,12,28,25.50
2008,08,17,12,29,25.50
2008,08,17,12,30,25.50
2008,08,17,12,31,25.60
2008,08,17,12,32,25.60
2008,08,17,12,33,25.60
2008,08,17,12,34,25.60
2008,08,17,12,35,25.60
2008,08,17,12,36,25.60
2008,08,17,12,37,25.60
2008,08,17,12,38,25.50
2008,08,17,12,39,25.40
2008,08,17,12,40,25.40
2008,08,17,12,41,25.40
2008,08,17,12,42,25.40
2008,08,17,12,43,25.50
2008,08,17,12,44,25.50
2008,08,17,12,45,25.50
2008,08,17,12,46,25.60
2008,08,17,12,47,25.70
2008,08,17,12,48,25.60
2008,08,17,12,49,25.40
2008,08,17,12,50,25.40
2008,08,17,12,51,25.50
2008,08,17,12,52,25.60
2008,08,17,12,53,25.70
2008,08,17,12,54,25.70
2008,08,17,12,55,25.70
2008,08,17,12,56,25.70
2008,08,17,12,57,25.60
2008,08,17,12,58,25.50
2008,08,17,12,59,25.40
2008,08,17,13,00,25.30
2008,08,17,13,01,25.30
2008,08,17,13,02,25.30
2008,08,17,13,03,25.30
2008,08,17,13,04,25.30
2008,08,17,13,05,25.20
2008,08,17,13,06,25.10
2008,08,17,13,07,25.10
2008,08,17,13,08,25.10
2008,08,17,13,09,25.10
2008,08,17,13,10,25.20
2008,08,17,13,11,25.30
2008,08,17,13,12,25.50
2008,08,17,13,13,25.70
2008,08,17,13,14,25.80
2008,08,17,13,15,25.80
2008,08,17,13,16,25.80
2008,08,17,13,17,25.80
2008,08,17,13,18,25.70
2008,08,17,13,19,25.70
2008,08,17,13,20,25.60
2008,08,17,13,21,25.70
2008,08,17,13,22,25.70
2008,08,17,13,23,25.70
2008,08,17,13,24,25.80
2008,08,17,13,25,25.70
2008,08,17,13,26,25.60
2008,08,17,13,27,25.60
2008,08,17,13,28,25.60
2008,08,17,13,29,25.60
2008,08,17,13,30,25.50
2008,08,17,13,31,25.50
2008,08,17,13,32,25.60
2008,08,17,13,33,25.60
2008,08,17,13,34,25.60
2008,08,17,13,35,25.50
2008,08,17,13,36,25.40
2008,08,17,13,37,25.40
2008,08,17,13,38,25.30
2008,08,17,13,39,25.30
2008,08,17,13,40,25.30
2008,08,17,13,41,25.40
2008,08,17,13,42,25.30
2008,08,17,13,43,25.30
2008,08,17,13,44,25.40
2008,08,17,13,45,25.50
2008,08,17,13,46,25.50
2008,08,17,13,47,25.40
2008,08,17,13,48,25.40
2008,08,17,13,49,25.40
2008,08,17,13,50,25.50
2008,08,17,13,51,25.50
2008,08,17,13,52,25.60
2008,08,17,13,53,25.70
2008,08,17,13,54,25.70
2008,08,17,13,55,25.80
2008,08,17,13,56,25.90
2008,08,17,13,57,26.10
2008,08,17,13,58,26.30
2008,08,17,13,59,26.30
2008,08,17,14,00,26.30
2008,08,17,14,01,26.30
2008,08,17,14,02,26.20
2008,08,17,14,03,26.30
2008,08,17,14,04,26.40
2008,08,17,14,05,26.40
2008,08,17,14,06,26.40
2008,08,17,14,07,26.50
2008,08,17,14,08,26.60
2008,08,17,14,09,26.70
2008,08,17,14,10,26.60
2008,08,17,14,11,26.50
2008,08,17,14,12,26.40
2008,08,17,14,13,26.30
2008,08,17,14,14,26.30
2008,08,17,14,15,26.30
2008,08,17,14,16,26.30
2008,08,17,14,17,26.40
2008,08,17,14,18,26.30
2008,08,17,14,19,26.20
2008,08,17,14,20,26.20
2008,08,17,14,21,26.20
2008,08,17,14,22,26.20
2008,08,17,14,23,26.30
2008,08,17,14,24,26.30
2008,08,17,14,25,26.30
2008,08,17,14,26,26.30
2008,08,17,14,27,26.30
2008,08,17,14,28,26.30
2008,08,17,14,29,26.30
2008,08,17,14,30,26.30
2008,08,17,14,31,26.40
2008,08,17,14,32,26.40
2008,08,17,14,33,26.50
2008,08,17,14,34,26.60
2008,08,17,14,35,26.70
2008,08,17,14,36,26.70
2008,08,17,14,37,26.70
2008,08,17,14,38,26.70
2008,08,17,14,39,26.70
2008,08,17,14,40,26.70
2008,08,17,14,41,26.70
2008,08,17,14,42,26.70
2008,08,17,14,43,26.80
2008,08,17,14,44,26.80
2008,08,17,14,45,26.90
2008,08,17,14,46,27.10
2008,08,17,14,47,27.20
2008,08,17,14,48,27.20
2008,08,17,14,49,27.20
2008,08,17,14,50,27.20
2008,08,17,14,51,27.20
2008,08,17,14,52,27.20
2008,08,17,14,53,27.10
2008,08,17,14,54,27.10
2008,08,17,14,55,27.10
2008,08,17,14,56,27.20
2008,08,17,14,57,27.20
2008,08,17,14,58,27.20
2008,08,17,14,59,27.30
2008,08,17,15,00,27.40
2008,08,17,15,01,27.50
2008,08,17,15,02,27.60
2008,08,17,15,03,27.60
2008,08,17,15,04,27.60
2008,08,17,15,05,27.50
2008,08,17,15,06,27.40
2008,08,17,15,07,27.40
2008,08,17,15,08,27.30
2008,08,17,15,09,27.20
2008,08,17,15,10,27.20
2008,08,17,15,11,27.20
2008,08,17,15,12,27.20
2008,08,17,15,13,27.20
2008,08,17,15,14,27.20
2008,08,17,15,15,27.20
2008,08,17,15,16,27.30
2008,08,17,15,17,27.30
2008,08,17,15,18,27.40
2008,08,17,15,19,27.30
2008,08,17,15,20,27.40
2008,08,17,15,21,27.40
2008,08,17,15,22,27.50
2008,08,17,15,23,27.60
2008,08,17,15,24,27.70
2008,08,17,15,25,27.80
2008,08,17,15,26,27.70
2008,08,17,15,27,27.70
2008,08,17,15,28,27.70
2008,08,17,15,29,27.60
2008,08,17,15,30,27.60
2008,08,17,15,31,27.60
2008,08,17,15,32,27.50
2008,08,17,15,33,27.40
2008,08,17,15,34,27.30
2008,08,17,15,35,27.30
2008,08,17,15,36,27.30
2008,08,17,15,37,27.30
2008,08,17,15,38,27.40
2008,08,17,15,39,27.50
2008,08,17,15,40,27.60
2008,08,17,15,41,27.60
2008,08,17,15,42,27.60
2008,08,17,15,43,27.60
2008,08,17,15,44,27.60
2008,08,17,15,45,27.60
2008,08,17,15,46,27.60
2008,08,17,15,47,27.60
2008,08,17,15,48,27.50
2008,08,17,15,49,27.50
2008,08,17,15,50,27.60
2008,08,17,15,51,27.60
2008,08,17,15,52,27.60
2008,08,17,15,53,27.60
2008,08,17,15,54,27.70
2008,08,17,15,55,27.70
2008,08,17,15,56,27.70
2008,08,17,15,57,27.80
2008,08,17,15,58,27.70
2008,08,17,15,59,27.70
2008,08,17,16,00,27.80
2008,08,17,16,01,27.70
2008,08,17,16,02,27.60
2008,08,17,16,03,27.60
2008,08,17,16,04,27.50
2008,08,17,16,05,27.50
2008,08,17,16,06,27.40
2008,08,17,16,07,27.40
2008,08,17,16,08,27.40
2008,08,17,16,09,27.50
2008,08,17,16,10,27.60
2008,08,17,16,11,27.60
2008,08,17,16,12,27.60
2008,08,17,16,13,27.70
2008,08,17,16,14,27.60
2008,08,17,16,15,27.60
2008,08,17,16,16,27.60
2008,08,17,16,17,27.60
2008,08,17,16,18,27.60
2008,08,17,16,19,27.60
2008,08,17,16,20,27.50
2008,08,17,16,21,27.40
2008,08,17,16,22,27.30
2008,08,17,16,23,27.30
2008,08,17,16,24,27.20
2008,08,17,16,25,27.10
2008,08,17,16,26,27.10
2008,08,17,16,27,27.00
2008,08,17,16,28,26.90
2008,08,17,16,29,26.90
2008,08,17,16,30,27.00
2008,08,17,16,31,27.00
2008,08,17,16,32,27.00
2008,08,17,16,33,26.90
2008,08,17,16,34,26.90
2008,08,17,16,35,26.80
2008,08,17,16,36,26.90
2008,08,17,16,37,26.80
2008,08,17,16,38,26.90
2008,08,17,16,39,26.90
2008,08,17,16,40,26.80
2008,08,17,16,41,26.80
2008,08,17,16,42,26.80
2008,08,17,16,43,26.80
2008,08,17,16,44,26.70
2008,08,17,16,45,26.70
2008,08,17,16,46,26.70
2008,08,17,16,47,26.70
2008,08,17,16,48,26.70
2008,08,17,16,49,26.80
2008,08,17,16,50,26.70
2008,08,17,16,51,26.70
2008,08,17,16,52,26.60
2008,08,17,16,53,26.60
2008,08,17,16,54,26.60
2008,08,17,16,55,26.60
2008,08,17,16,56,26.60
2008,08,17,16,57,26.60
2008,08,17,16,58,26.60
2008,08,17,16,59,26.50
2008,08,17,17,00,26.50
2008,08,17,17,01,26.40
2008,08,17,17,02,26.40
2008,08,17,17,03,26.40
2008,08,17,17,04,26.40
2008,08,17,17,05,26.40
2008,08,17,17,06,26.40
2008,08,17,17,07,26.40
2008,08,17,17,08,26.40
2008,08,17,17,09,26.40
2008,08,17,17,10,26.30
2008,08,17,17,11,26.30
2008,08,17,17,12,26.20
2008,08,17,17,13,26.10
2008,08,17,17,14,26.00
2008,08,17,17,15,25.90
2008,08,17,17,16,25.90
2008,08,17,17,17,25.90
2008,08,17,17,18,25.90
2008,08,17,17,19,25.80